Regional Weather Roundup
Issued by NWS

Home | Current Version | Previous Version | Graphics & Text | Print | Product List | Glossary On
Versions: 1 2 3 4 5 6 7 8 9 10 11 12 13 14 15 16 17 18 19 20 21 22 23 24 25 26 27 28 29 30 31 32 33 34 35 36 37 38 39 40 41 42 43 44 45 46 47 48 49 50
000
ASUS43 KMPX 260510
RWRMN
WEATHER ROUNDUP FOR MINNESOTA
NATIONAL WEATHER SERVICE TWIN CITIES/CHANHASSEN MN
1200 AM CDT SUN MAR 26 2017


NOTE: "FAIR" INDICATES FEW OR NO CLOUDS BELOW 12,000 FEET WITH NO
SIGNIFICANT WEATHER AND/OR OBSTRUCTIONS TO VISIBILITY. N/A MEANS
CURRENT SKY AND/OR WEATHER CONDITIONS ARE NOT AVAILABLE.

MNZ060>063-068>070-260600-
   Twin Cities Metro

CITY           SKY/WX    TMP DP  RH WIND       PRES   REMARKS
TWIN CITIES    LGT RAIN  38  36  92 NE9       30.02F FOG
ST PAUL        LGT RAIN  39  37  92 NE7       30.04F
CRYSTAL        CLOUDY    40  32  73 E8        30.02F
BLAINE         CLOUDY    41  36  81 E8        30.03F
LAKEVILLE      DRIZZLE   36  36 100 NE7       30.01S
EDEN PRAIRIE   LGT RAIN  39  36  89 NE7       30.00F FOG
SOUTH ST PAUL  LGT RAIN  38  37  96 NE5       30.02F
LAKE ELMO      LGT RAIN  37  36  93 NE7       30.03F
$$
MNZ001>005-007-008-013>017-022>024-027-028-260600-
   Northwest Minnesota

CITY           SKY/WX    TMP DP  RH WIND       PRES   REMARKS
BEMIDJI        CLOUDY    30  27  89 SE7       30.04F WCI  23
HALLOCK        PTCLDY    34  32  93 S10       29.99F WCI  26
ROSEAU         PTCLDY    36  30  80 S9        30.01R
WARROAD        CLOUDY    36  30  80 S9        30.01S
THIEF RVR FALL   N/A    N/A N/A N/A MISG        N/A
CROOKSTON      PTCLDY    34  34 100 S7        30.02S WCI  28
FOSSTON        CLOUDY    32  27  80 SE8       30.02S WCI  25
DETROIT LAKES  CLOUDY    34  30  86 SE8       30.02F WCI  27
MOORHEAD       CLOUDY    34  32  93 S5        30.03S WCI  30
PARK RAPIDS    CLOUDY    31  25  78 NE3       30.03S
MAHNOMEN       FAIR      32  29  88 S3        30.02S
$$
MNZ006-009>011-018-025>026-260600-
   North Central Minnesota

CITY           SKY/WX    TMP DP  RH WIND       PRES   REMARKS
BAUDETTE       CLOUDY    33  26  75 S9        30.04R WCI  25
FLAG ISLAND    PTCLDY    34  28  80 S17       30.01S WCI  23
INTL FALLS     CLOUDY    32  25  75 S8        30.08S WCI  25
WASKISH        PTCLDY    30  27  86 SE7       30.05F WCI  23
BIG FORK       CLOUDY    34  28  80 SE7       30.08S WCI  28
LONGVILLE      CLOUDY    32  28  86 E5        30.04F WCI  27
GRAND RAPIDS   CLOUDY    31  28  89 SE6       30.08F WCI  25
CRANE LAKE     CLOUDY    30  27  86 SE5       30.13S WCI  25
ORR            CLOUDY    30  25  80 CALM      30.07S
COOK           CLOUDY    30  27  86 SE3       30.10S
WALKER         CLOUDY    29  26  90 CALM      30.05S
$$
MNZ012-019>021-037-260600-
   Northeast Minnesota

CITY           SKY/WX    TMP DP  RH WIND       PRES   REMARKS
DULUTH         FRZ DRZL  32  31  96 E14       30.08F WCI  22
ELY            CLOUDY    30  28  93 SE8       30.09F WCI  23
HIBBING        CLOUDY    30  28  92 SE7       30.08F WCI  23
EVELETH        CLOUDY    32  29  88 E7        30.09F WCI  26
DULUTH HARBOR  CLOUDY    34  32  93 NE20      30.13F WCI  22
TWO HARBORS    CLOUDY    34  28  80 E13       30.09F WCI  25
SILVER BAY     CLOUDY    32  32 100 NE9       30.11F WCI  24
GRAND MARAIS     N/A     33  28  81 NE8       30.18F WCI  26
G MARAIS ARPRT CLOUDY    27  21  80 E9        30.13F WCI  17
$$
MNZ029>031-032-039>041-046>048-054>057-064-260600-
   West Central Minnesota

CITY           SKY/WX    TMP DP  RH WIND       PRES   REMARKS
FERGUS FALLS   CLOUDY    36  30  80 CALM      30.05F
WHEATON        CLOUDY    37  34  87 S3        30.04R
MORRIS         CLOUDY    37  36  93 SE8       30.00S
ALEXANDRIA     CLOUDY    39  34  82 SE8       30.01F
ELBOW LAKE     CLOUDY    37  35  92 E3        30.01S
WADENA         CLOUDY    34  28  80 E6        30.02S WCI  29
GLENWOOD       CLOUDY    37  36  93 E7        30.01F
APPLETON       CLOUDY    39  36  87 CALM      30.00F
BENSON         CLOUDY    41  34  75 SE7       30.02F
ORTONVILLE     CLOUDY    37  34  87 SE9       30.00F
MADISON        CLOUDY    39  39 100 E7        30.00F FOG
WILLMAR        CLOUDY    39  37  93 E6        30.02F
$$
MNZ033>034-036-042>043-049>051-058-059-260600-
   Central Minnesota

CITY           SKY/WX    TMP DP  RH WIND       PRES   REMARKS
ST CLOUD       CLOUDY    38  32  79 NE8       30.03F
SAUK CENTRE    CLOUDY    39  34  81 E8        30.01F
PAYNESVILLE      N/A     38  35  87 E8        30.02F
AITKIN         CLOUDY    36  28  75 E7        30.04F
PINE RIVER     CLOUDY    32  28  86 SE9       30.07F WCI  24
BRAINERD       CLOUDY    34  29  82 E6        30.05F WCI  29
STAPLES        CLOUDY    36  28  75 E5        30.03S
LITTLE FALLS   CLOUDY    36  30  80 E6        30.04F
LITCHFIELD     CLOUDY    39  37  93 NE6       30.02F
BUFFALO        CLOUDY    39  33  80 E8        30.03F
MAPLE LAKE     CLOUDY    40  36  84 E9        30.03F
HUTCHINSON     CLOUDY    39  37  90 E6        30.01F
$$
MNZ037-044-045-052-053-260600-
   East Central Minnesota

CITY           SKY/WX    TMP DP  RH WIND       PRES   REMARKS
PRINCETON      CLOUDY    37  30  75 N7        30.04F
MORA           CLOUDY    34  28  80 NE7       30.07F WCI  28
CAMBRIDGE      CLOUDY    41  30  65 NE5       30.03F
RUSH CITY      CLOUDY    37  30  77 NE6       30.05F
MOOSE LAKE     CLOUDY    32  30  93 E5        30.06F WCI  27
CLOQUET        CLOUDY    32  30  93 E6        30.08F FOG     WCI  26
MCGREGOR       CLOUDY    32  30  93 E7        30.07F WCI  26
$$
MNZ071>073-080-081-089-090-097-098-260600-
   Southwest Minnesota

CITY           SKY/WX    TMP DP  RH WIND       PRES   REMARKS
MONTEVIDEO     CLOUDY    37  37 100 SE7       30.02F
GRANITE FALLS  CLOUDY    38  37  94 NE5       30.02F
CANBY          CLOUDY    38  37  98 CALM      30.00F FOG
MARSHALL       CLOUDY    37  36  96 E6        29.99F
REDWOOD FALLS  CLOUDY    39  34  82 NE3       30.00F
OLIVIA         CLOUDY    36  34  93 NE7       30.00F
PIPESTONE      CLOUDY    37  34  87 E10       29.95F FOG
WINDOM         CLOUDY    37  36  93 NE10      29.96F FOG
WORTHINGTON    CLOUDY    36  35  96 E10       29.96F FOG
JACKSON        LGT RAIN  36  36 100 E10       29.96F
TRACY          CLOUDY    38  37  97 E6        29.98F FOG
SLAYTON        CLOUDY    35  35  99 NE7       29.97F FOG     WCI  29
$$
MNZ065>067-074>077-082>085-091>093-260600-
   South Central Minnesota

CITY           SKY/WX    TMP DP  RH WIND       PRES   REMARKS
MANKATO        LGT RAIN  38  36  92 NE8       30.00S
NEW ULM        CLOUDY    37  36  93 E5        29.99F
ST JAMES       RAIN      37  37 100 CALM      29.99F
FAIRMONT       LGT RAIN  37  36  96 NE7       29.98F FOG
GLENCOE        CLOUDY    40  37  90 NE7       30.00F
FARIBAULT      CLOUDY    37  37 100 E8        30.00S
OWATONNA       DRIZZLE   37  36  93 E10       29.99R
WASECA         LGT RAIN  36  34  93 NE7       30.00S
ALBERT LEA     CLOUDY    36  36 100 NE7       29.97S FOG
$$
MNZ078>079-086>088-094>096-260600-
   Southeast Minnesota

CITY           SKY/WX    TMP DP  RH WIND       PRES   REMARKS
ROCHESTER      CLOUDY    35  35 100 E10       29.97F FOG     WCI  27
RED WING       RAIN      37  34  87 E9G16     30.01F
STANTON        LGT RAIN  38  36  92 E7        29.99F
DODGE CENTER   CLOUDY    36  34  93 E14G20    29.97F
WINONA         CLOUDY    36  34  93 E6        30.02F
AUSTIN         CLOUDY    36  34  93 E10       29.95F FOG
PRESTON        FOG       34  33  96 E9        29.97F VSB 1/2 WCI  27
$$
ABBREVIATIONS USED IN REMARKS
   TC - TEMPERATURES IN CELSIUS
  WCI - WIND CHILL INDEX
   HX - HEAT INDEX
  VSB - VISIBILITY
$$



USA.gov is the U.S. government's official web portal to all federal, state and local government web resources and services.